This is the latest recevied weather packets stored in our database for station/object WB5CFT. If no packets are shown the sender has not sent any weather packets the latest 1 day(s).
| Time | Temp. | Humidity | Pressure | Rain* | Wind** | Luminosity | Snow |
|---|---|---|---|---|---|---|---|
| 1777997062 | 23.33° C | 32% | 1011.4 hPa | 0 mm | 0.89 m/s, 163° | 174 W/m² | - |
| 1777996758 | 23.33° C | 32% | 1011.6 hPa | 0 mm | 1.79 m/s, 194° | 173 W/m² | - |
| 1777996455 | 23.33° C | 34% | 1011.6 hPa | 0 mm | 0 m/s | 165 W/m² | - |
| 1777996152 | 22.78° C | 34% | 1011.5 hPa | 0 mm | 0.89 m/s, 183° | 162 W/m² | - |
| 1777995848 | 22.78° C | 34% | 1011.5 hPa | 0 mm | 0.89 m/s, 204° | 146 W/m² | - |
| 1777995544 | 22.78° C | 34% | 1011.6 hPa | 0 mm | 0.89 m/s, 183° | 146 W/m² | - |
| 1777995241 | 22.78° C | 34% | 1011.5 hPa | 0 mm | 0 m/s | 137 W/m² | - |
| 1777994938 | 22.78° C | 34% | 1011.5 hPa | 0 mm | 0.89 m/s, 195° | 125 W/m² | - |
| 1777994636 | 22.22° C | 34% | 1011.4 hPa | 0 mm | 0 m/s | 109 W/m² | - |
| 1777994335 | 22.22° C | 35% | 1011.6 hPa | 0 mm | 0 m/s | 99 W/m² | - |
| 1777994032 | 22.22° C | 34% | 1011.7 hPa | 0 mm | 1.34 m/s, 163° | 108 W/m² | - |
| 1777993729 | 22.22° C | 34% | 1011.8 hPa | 0 mm | 1.34 m/s, 176° | 104 W/m² | - |
| 1777993427 | 22.22° C | 34% | 1011.7 hPa | 0 mm | 0 m/s | 104 W/m² | - |
| 1777993126 | 22.22° C | 33% | 1011.7 hPa | 0 mm | 0 m/s | 84 W/m² | - |
| 1777992825 | 22.22° C | 34% | 1011.8 hPa | 0 mm | 0 m/s | 70 W/m² | - |
| 1777992522 | 22.22° C | 33% | 1011.8 hPa | 0 mm | 0 m/s | 71 W/m² | - |
| 1777992221 | 22.78° C | 32% | 1011.8 hPa | 0 mm | 0 m/s | 69 W/m² | - |
| 1777991917 | 22.78° C | 33% | 1011.9 hPa | 0 mm | 0 m/s | 66 W/m² | - |
| 1777991615 | 22.78° C | 31% | 1011.8 hPa | 0 mm | 0.45 m/s, 189° | 62 W/m² | - |
| 1777991312 | 22.78° C | 31% | 1011.5 hPa | 0 mm | 0 m/s | 54 W/m² | - |
| 1777991009 | 23.33° C | 31% | 1011.4 hPa | 0 mm | 0 m/s | 47 W/m² | - |
| 1777990706 | 22.78° C | 31% | 1011.5 hPa | 0 mm | 0 m/s | 42 W/m² | - |
| 1777990404 | 22.78° C | 31% | 1011.5 hPa | 0 mm | 0.89 m/s, 186° | 42 W/m² | - |
| 1777990100 | 22.78° C | 31% | 1011.6 hPa | 0 mm | 1.79 m/s, 179° | 50 W/m² | - |
| 1777989796 | 22.78° C | 31% | 1011.7 hPa | 0 mm | 0.45 m/s, 200° | 43 W/m² | - |
* Rain latest hour (hover to see other rain measurements)
** Current wind speed in m/s (hover to see current wind gust speed)